Вернуться в каталог

FENGYUN 1C DEB

АктивенPO
NORAD 31151·DEBRIS·🇨🇳 China

Запущен May 10, 1999 с Taiyuan Satellite Launch Center

Loading…

Ближайшие Пролёты (ближайшие 24 часа)

TLE

СвежийSource: Space-Track

Эпоха: Sep 14, 2026, 00:29 UTC

1 31151U 99025BHD 26257.02080458  .00002827  00000-0  11355-2 0  9991
2 31151  99.1279 279.5731 0052631 313.0124  46.6652 14.28270896999019

Отслеживайте FENGYUN 1C DEB в реальном времени с AllMySat

Download on the App Store